Weather History for Port Aransas, TX

Change the Weather History Date:

Sunday, March 3, 2013

  Actual Average (KCRP) Record (KCRP)
Temperature  
Mean Temperature 58 °F 64 °F  
Max Temperature 67 °F 73 °F 88 °F (1966)
Min Temperature 50 °F 54 °F 28 °F (1943)
Degree Days  
Heating Degree Days 6 4  
Month to date heating degree days 12  
Since 1 July heating degree days 812  
Cooling Degree Days 0 3  
Month to date cooling degree days 8  
Year to date cooling degree days 84  
Growing Degree Days 8 (Base 50)    
Moisture  
Dew Point 47 °F    
Average Humidity 63    
Maximum Humidity 82    
Minimum Humidity 46    
Precipitation  
Precipitation 0.00 in 0.07 in 1.16 in (1957)
Month to date precipitation 0.21  
Year to date precipitation 3.68  
Snow  
Snow 0.00 in - - ()
Month to date snowfall  
Since 1 July snowfall  
Snow Depth -    
Sea Level Pressure  
Sea Level Pressure 30.18 in    
Wind  
Wind Speed 9 mph (South)    
Max Wind Speed 20 mph    
Max Gust Speed 29 mph    
Visibility 10 miles    
Events      
T = Trace of Precipitation, MM = Missing Value Source: NWS Daily Summary

Daily Weather History Graph

Daily Weather History Graph

Search for Another Location

Airport:

Trip Planner

Search our weather history database for the weather conditions in past years. The results will help you decide how hot, cold, wet, or windy it might be!

Date:

Astronomy

Mar. 03, 2013 Rise Set
Actual Time 6:50 AM CST 6:30 PM CST
Civil Twilight 6:27 AM CST 6:53 PM CST
Nautical Twilight 5:59 AM CST 7:20 PM CST
Astronomical Twilight 5:32 AM CST 7:48 PM CST
Moon No Moon Rise 10:40 AM CST (3/3)
Length of Visible Light 12h 26m
Length of Day
11h 39m
Waning Gibbous, 63% of the Moon is Illuminated
Mar 3
Waning Gibbous
Mar 4
Last Quarter
Mar 11
New
Mar 19
First Quarter
Mar 27
Full

Hourly Weather History & Observations

Time (CST) Temp. Dew Point Humidity Pressure Visibility Wind Dir Wind Speed Gust Speed Precip Events Conditions
12:15 AM 55.6 °F 34.9 °F 46% 30.28 in 10.0 mi East 8.1 mph - N/A   Clear
12:35 AM 55.4 °F 36.0 °F 48% 30.29 in 10.0 mi East 8.1 mph - N/A   Clear
12:55 AM 54.7 °F 36.1 °F 50% 30.29 in 10.0 mi ESE 6.9 mph - N/A   Clear
1:15 AM 54.5 °F 35.8 °F 49% 30.28 in 10.0 mi East 5.8 mph - N/A   Clear
1:35 AM 54.1 °F 37.0 °F 52% 30.28 in 10.0 mi East 5.8 mph - N/A   Clear
1:55 AM 53.1 °F 36.7 °F 54% 30.28 in 10.0 mi East 5.8 mph - N/A   Clear
2:15 AM 54.5 °F 37.4 °F 52% 30.28 in 10.0 mi ESE 4.6 mph - N/A   Clear
2:35 AM 54.0 °F 37.9 °F 55% 30.27 in 10.0 mi SE 5.8 mph - N/A   Clear
2:55 AM 55.8 °F 38.3 °F 52% 30.26 in 10.0 mi ESE 4.6 mph - N/A   Clear
3:15 AM 54.5 °F 38.3 °F 54% 30.26 in 10.0 mi SE 4.6 mph - N/A   Clear
3:35 AM 55.2 °F 38.7 °F 54% 30.26 in 10.0 mi SE 4.6 mph - N/A   Clear
3:55 AM 54.9 °F 39.6 °F 56% 30.25 in 10.0 mi SE 3.5 mph - N/A   Clear
4:15 AM 53.8 °F 38.5 °F 56% 30.25 in 10.0 mi SE 3.5 mph - N/A   Clear
4:35 AM 53.6 °F 39.4 °F 59% 30.25 in 10.0 mi SE 3.5 mph - N/A   Clear
4:55 AM 55.0 °F 40.1 °F 57% 30.24 in 10.0 mi SE 4.6 mph - N/A   Clear
5:15 AM 54.1 °F 41.0 °F 61% 30.24 in 10.0 mi SSE 4.6 mph - N/A   Clear
5:35 AM 54.9 °F 40.8 °F 59% 30.24 in 10.0 mi South 4.6 mph - N/A   Clear
5:55 AM 54.7 °F 41.0 °F 60% 30.25 in 10.0 mi South 3.5 mph - N/A   Clear
6:15 AM 54.5 °F 41.7 °F 62% 30.25 in 10.0 mi South 4.6 mph - N/A   Clear
6:35 AM 53.6 °F 43.2 °F 68% 30.26 in 10.0 mi WSW 5.8 mph - N/A   Clear
6:55 AM 51.1 °F 45.9 °F 82% 30.26 in 10.0 mi WSW 5.8 mph - N/A   Clear
7:15 AM 50.5 °F 44.6 °F 80% 30.26 in 10.0 mi WSW 4.6 mph - N/A   Clear
7:35 AM 52.0 °F 43.7 °F 73% 30.27 in 10.0 mi West 5.8 mph - N/A   Clear
7:55 AM 53.6 °F 43.7 °F 69% 30.27 in 10.0 mi West 4.6 mph - N/A   Clear
8:15 AM 54.9 °F 43.7 °F 66% 30.28 in 10.0 mi WSW 5.8 mph - N/A   Clear
8:35 AM 55.8 °F 43.3 °F 63% 30.28 in 10.0 mi WSW 5.8 mph - N/A   Clear
8:55 AM 57.2 °F 43.2 °F 59% 30.28 in 10.0 mi WSW 5.8 mph - N/A   Clear
9:15 AM 57.4 °F 44.2 °F 62% 30.28 in 10.0 mi WSW 6.9 mph - N/A   Clear
9:35 AM 59.0 °F 43.9 °F 57% 30.28 in 10.0 mi WSW 5.8 mph - N/A   Clear
9:55 AM 60.8 °F 44.2 °F 54% 30.28 in 10.0 mi WSW 3.5 mph - N/A   Clear
10:15 AM 62.8 °F 43.7 °F 50% 30.27 in 10.0 mi South 9.2 mph - N/A   Clear
10:35 AM 62.2 °F 46.6 °F 57% 30.27 in 10.0 mi SSE 9.2 mph - N/A   Clear
10:55 AM 62.4 °F 47.1 °F 57% 30.25 in 10.0 mi South 8.1 mph - N/A   Clear
11:15 AM 63.0 °F 47.7 °F 57% 30.25 in 10.0 mi South 10.4 mph - N/A   Clear
11:35 AM 63.0 °F 48.6 °F 59% 30.24 in 10.0 mi South 10.4 mph - N/A   Clear
11:55 AM 63.3 °F 49.3 °F 60% 30.24 in 10.0 mi South 10.4 mph - N/A   Clear
12:15 PM 63.7 °F 49.8 °F 61% 30.22 in 10.0 mi South 10.4 mph - N/A   Clear
12:35 PM 64.8 °F 50.0 °F 59% 30.21 in 10.0 mi SSE 10.4 mph - N/A   Clear
12:55 PM 64.6 °F 50.0 °F 59% 30.20 in 10.0 mi SSE 11.5 mph - N/A   Clear
1:15 PM 65.1 °F 50.7 °F 60% 30.19 in 10.0 mi SSE 9.2 mph - N/A   Clear
1:35 PM 65.3 °F 50.7 °F 59% 30.17 in 10.0 mi South 13.8 mph - N/A   Clear
1:55 PM 65.5 °F 52.0 °F 62% 30.15 in 10.0 mi South 12.7 mph - N/A   Clear
2:15 PM 65.5 °F 52.5 °F 63% 30.15 in 10.0 mi SSE 12.7 mph - N/A   Clear
2:35 PM 67.1 °F 51.1 °F 56% 30.14 in 10.0 mi SSE 15.0 mph 19.6 mph N/A   Clear
2:55 PM 66.6 °F 50.9 °F 57% 30.13 in 10.0 mi SSE 15.0 mph 19.6 mph N/A   Clear
3:15 PM 66.6 °F 50.0 °F 55% 30.12 in 10.0 mi South 15.0 mph 19.6 mph N/A   Clear
3:55 PM 66.2 °F 50.2 °F 56% 30.11 in 10.0 mi SSE 17.3 mph 20.7 mph N/A   Clear
4:15 PM 66.0 °F 50.5 °F 57% 30.10 in 10.0 mi SSE 15.0 mph 21.9 mph N/A   Clear
4:35 PM 65.7 °F 50.7 °F 58% 30.09 in 10.0 mi SSE 15.0 mph 23.0 mph N/A   Clear
4:55 PM 65.5 °F 51.3 °F 60% 30.09 in 10.0 mi SSE 15.0 mph 21.9 mph N/A   Clear
5:15 PM 65.3 °F 51.8 °F 62% 30.08 in 10.0 mi SSE 16.1 mph 21.9 mph N/A   Clear
5:35 PM 64.4 °F 51.8 °F 64% 30.07 in 10.0 mi SSE 17.3 mph 21.9 mph N/A   Clear
5:55 PM 63.9 °F 52.0 °F 65% 30.07 in 10.0 mi SSE 19.6 mph - N/A   Clear
6:35 PM 63.0 °F 53.1 °F 70% 30.07 in 10.0 mi SSE 17.3 mph 24.2 mph N/A   Clear
6:55 PM 62.8 °F 52.9 °F 70% 30.07 in 10.0 mi SSE 16.1 mph 24.2 mph N/A   Clear
7:15 PM 62.8 °F 53.1 °F 71% 30.07 in 10.0 mi South 17.3 mph 24.2 mph N/A   Clear
7:35 PM 62.6 °F 53.6 °F 72% 30.07 in 10.0 mi South 17.3 mph 24.2 mph N/A   Clear
7:55 PM 62.6 °F 53.8 °F 73% 30.07 in 10.0 mi South 17.3 mph 20.7 mph N/A   Clear
8:15 PM 62.2 °F 54.1 °F 75% 30.07 in 10.0 mi South 15.0 mph 23.0 mph N/A   Clear
8:35 PM 62.2 °F 54.3 °F 75% 30.06 in 10.0 mi South 16.1 mph 21.9 mph N/A   Clear
8:55 PM 62.2 °F 54.0 °F 74% 30.06 in 10.0 mi South 15.0 mph 24.2 mph N/A   Clear
9:15 PM 61.9 °F 54.1 °F 76% 30.06 in 10.0 mi South 16.1 mph 21.9 mph N/A   Clear
9:35 PM 61.9 °F 54.7 °F 77% 30.06 in 10.0 mi South 15.0 mph 20.7 mph N/A   Clear
9:55 PM 62.1 °F 54.5 °F 76% 30.06 in 10.0 mi South 16.1 mph 21.9 mph N/A   Clear
10:15 PM 61.9 °F 54.7 °F 77% 30.05 in 10.0 mi South 16.1 mph 24.2 mph N/A   Clear
10:35 PM 62.1 °F 54.5 °F 76% 30.04 in 10.0 mi South 16.1 mph 21.9 mph N/A   Clear
10:55 PM 62.1 °F 54.5 °F 76% 30.04 in 10.0 mi South 16.1 mph 23.0 mph N/A   Clear
11:15 PM 62.2 °F 54.5 °F 76% 30.02 in 10.0 mi South 17.3 mph 24.2 mph N/A   Clear
11:35 PM 62.1 °F 54.5 °F 76% 30.02 in 10.0 mi South 17.3 mph 23.0 mph N/A   Clear
11:55 PM 62.2 °F 54.7 °F 76% 30.01 in 10.0 mi South 17.3 mph 28.8 mph N/A   Clear